Main page
METAR-TAF:

METAR-TAF

Airports :

Jim Kelly Field

Lexington, Nebraska, United States

latitude: 40-47-28N, longitude: 099-46-38W, elevation: 2414 ft

Current weather observation

The report was made 28 minutes ago, at 18:55 UTC
Wind 21 mph from the East/Northeast with gusts up to 29 mph
Temperature 84°F
Humidity 48%
Pressure 29.97 in. Hg
Visibility: 10 miles
Clear sky

METAR: KLXN 131855Z AUTO 06018G25KT 10SM CLR 29/17 A2997 RMK AO2 T02890169

Time: 14:23 (19:23 UTC)


TAF: missing

Weather observations and forecasts of more than 4000 airports (METAR and TAF reports).

The available stations are represented by yellow and red dots on the map.

Hover mouse over dot to see the name of the station.

Then click to see weather observations and forecasts.

To change the map : click on the green buttons with a black cross to zoom in, on the green button with a dash to zoom out, or on the green arrows for adjacent maps.


METAR-TAF: